Location: Praha
(50.0830°N, 14.4670°E)
Time: 13:06:32
(UTC+02:00)

ISS - Pass Details

Date: 09 July 2019
Orbit: 409 x 418 km, 51.6° (Epoch: 21 July)

Event Time Altitude Azimuth Distance (km) Brightness Sun altitude
Exits shadow 02:29:35 37° 195° (SSW) 663 -3.3 -15.2°
Maximum altitude 02:30:24 46° 153° (SSE) 562 -3.5 -15.2°
Drops below altitude 10° 02:33:36 10° 78° (ENE) 1,480 -0.6 -15.0°
Sets 02:35:44 0° 73° (ENE) 2,342 0.6 -14.9°
